Total_Precipitation_Accumulation
3.74 3.71 3.64 3.83 3.73 3.90 4.34 4.93 4.76 4.89 4.74 4.25 3.73 3.63 3.76 3.66 3.58 3.43 2.98 2.81 3.01 3.12 3.29 3.39 3.41 3.41 3.44 3.34 3.11 2.90 2.67 2.47 2.19 1.92 1.68 1.63 1.77 1.77 1.68 1.58 1.51 1.47 1.43
3.40 3.36 3.38 3.75 3.72 3.61 3.79 4.26 4.40 4.83 4.75 4.32 3.67 3.38 3.47 3.57 3.40 3.24 3.02 2.95 2.99 2.85 2.97 3.43 3.81 4.02 3.95 3.81 3.62 3.34 3.00 2.79 2.50 2.10 1.85 1.70 1.56 1.59 1.67 1.61 1.55 1.51 1.37
3.07 3.10 3.25 3.33 3.34 3.23 3.42 3.61 3.79 4.06 3.96 3.76 3.67 3.41 3.30 3.26 3.00 3.03 3.08 2.93 2.60 2.78 2.95 3.21 3.57 3.87 4.14 4.36 4.30 4.00 3.63 3.17 2.73 2.35 2.04 1.80 1.59 1.45 1.43 1.47 1.52 1.48 1.32
2.57 2.81 2.86 2.80 2.83 2.69 2.90 3.31 3.31 3.50 3.69 3.68 3.86 3.55 3.25 3.33 3.08 3.00 3.00 3.04 3.01 2.64 3.00 3.16 3.33 3.52 3.94 4.38 4.64 4.71 4.28 3.62 3.04 2.66 2.30 1.96 1.73 1.52 1.35 1.30 1.38 1.43 1.31
2.55 2.77 2.95 2.91 2.50 2.50 2.68 2.47 2.94 3.19 3.37 3.40 2.96 3.07 2.75 2.82 2.80 2.53 2.64 2.60 2.84 2.86 3.05 3.01 3.23 3.26 3.66 4.50 5.14 5.40 5.22 4.44 3.66 3.20 2.90 2.50 2.21 1.89 1.60 1.42 1.34 1.31 1.22
2.53 2.89 2.74 2.54 2.31 2.69 3.00 3.04 3.38 3.28 3.10 3.10 2.56 2.67 2.46 2.31 2.38 2.33 2.26 2.34 2.45 2.38 2.74 2.94 3.09 2.75 3.09 4.01 4.78 5.17 5.50 5.41 4.71 3.99 3.60 3.31 3.07 2.60 2.06 1.73 1.54 1.45 1.37
2.59 3.02 2.75 3.08 2.75 2.83 3.00 2.97 3.19 3.15 2.80 2.73 3.16 3.17 2.57 2.10 2.14 2.02 2.01 2.23 2.20 2.31 2.73 3.03 3.21 3.19 2.98 2.86 3.09 3.80 4.71 5.46 5.57 4.92 4.35 4.03 3.81 3.21 2.48 2.14 1.94 1.76 1.66
2.57 2.66 3.10 2.87 2.94 3.10 3.08 3.09 3.23 3.23 2.90 2.87 3.36 3.74 3.34 3.23 2.76 1.89 1.96 2.16 2.24 2.44 2.48 2.52 2.86 3.30 3.18 3.27 2.50 2.37 3.32 4.21 5.19 5.38 4.94 4.41 4.10 3.56 2.88 2.51 2.21 1.99 1.87
2.29 2.51 2.73 2.77 3.03 2.78 3.12 3.32 3.26 3.37 3.40 3.20 3.24 3.74 3.77 3.65 3.06 2.41 1.94 1.95 2.24 2.66 2.60 2.63 2.49 2.84 3.16 3.49 3.33 2.64 2.62 2.82 3.81 4.96 5.27 4.72 4.03 3.53 3.17 3.00 2.75 2.37 2.15
2.28 2.37 2.50 2.85 3.05 2.77 3.32 2.87 2.98 3.25 3.46 3.27 3.24 3.09 3.22 3.50 3.55 3.25 2.63 2.09 2.09 2.41 2.62 2.39 2.40 2.80 3.14 3.23 3.28 2.58 2.16 2.07 2.69 3.86 4.73 4.84 4.35 3.71 3.28 3.24 3.43 3.32 2.92
2.26 2.16 2.45 2.74 2.88 2.78 2.94 3.00 3.30 3.11 3.07 3.10 3.17 3.23 3.41 3.39 3.12 3.26 3.21 2.86 2.49 1.98 1.89 2.11 2.37 2.55 2.80 3.16 3.48 2.82 2.24 2.07 2.15 2.57 3.18 3.82 4.08 3.89 3.61 3.68 4.10 4.34 4.08
2.28 2.19 2.39 2.69 2.65 2.74 2.95 2.94 3.09 3.05 3.12 3.20 3.01 2.92 3.21 3.24 3.15 3.25 2.95 2.73 2.64 1.96 1.67 1.74 1.97 2.34 2.56 2.87 2.98 2.56 2.37 2.52 2.43 2.36 2.35 2.57 3.03 3.35 3.52 3.74 4.13 4.61 4.84
2.26 2.34 2.49 2.77 2.68 2.77 2.88 3.14 3.22 3.14 3.10 3.12 2.93 2.79 2.76 2.67 2.81 3.04 3.20 2.78 2.49 1.96 1.95 1.75 1.87 2.16 2.26 2.77 3.17 3.07 2.59 2.65 2.45 2.36 2.34 2.27 2.43 2.65 2.83 3.11 3.48 3.94 4.40
2.24 2.19 2.38 2.44 2.43 2.52 2.58 3.14 2.95 2.92 3.03 2.96 2.67 2.97 2.83 2.43 2.54 2.75 3.13 3.38 3.05 2.58 2.54 2.32 2.14 2.25 2.42 2.80 3.13 3.21 2.61 2.53 2.24 2.09 2.02 1.96 1.96 2.05 2.19 2.39 2.53 2.70 2.96
2.22 2.21 2.23 2.32 2.40 2.56 2.71 2.91 2.78 2.87 3.10 2.95 2.85 3.00 2.76 2.48 2.44 2.41 2.80 3.29 3.68 3.42 2.96 2.66 2.47 2.38 2.49 2.68 3.00 2.74 2.77 2.76 2.41 2.10 1.85 1.78 1.76 1.71 1.72 1.81 1.96 2.02 2.06
2.07 2.13 2.24 2.28 2.37 2.49 2.77 2.96 2.89 2.99 3.07 2.92 2.94 3.02 2.87 2.60 2.67 2.52 2.62 3.02 3.38 3.58 3.21 2.45 2.42 2.34 2.50 2.40 2.81 2.61 2.79 2.79 2.37 2.10 1.85 1.74 1.66 1.61 1.58 1.61 1.67 1.77 1.85
2.16 2.14 2.24 2.31 2.33 2.34 2.56 2.78 2.66 2.91 3.05 3.08 2.86 2.83 2.81 2.87 2.91 2.75 2.87 2.96 3.08 3.48 3.47 2.73 2.56 2.64 2.80 2.83 2.87 2.72 2.54 2.55 2.32 2.23 1.93 1.75 1.64 1.57 1.54 1.51 1.52 1.52 1.57
2.29 2.28 2.37 2.47 2.39 2.38 2.57 2.58 2.43 2.54 2.74 2.96 3.18 3.33 3.08 3.12 3.15 3.03 3.04 3.01 3.08 3.39 3.44 3.16 2.91 2.86 2.95 2.91 2.94 2.74 2.30 2.17 2.24 2.40 2.14 1.86 1.69 1.58 1.53 1.47 1.43 1.40 1.42
2.53 2.53 2.62 2.56 2.57 2.63 2.62 2.51 2.52 2.56 2.63 2.70 2.98 3.27 3.29 3.51 3.23 3.25 3.19 3.05 3.07 3.10 3.33 3.13 2.89 3.05 3.04 2.99 2.94 2.59 2.39 2.44 2.22 2.50 2.42 2.02 1.77 1.67 1.55 1.44 1.34 1.29 1.28
2.78 2.75 2.75 2.70 2.66 2.71 2.73 2.70 2.70 2.64 2.67 2.63 2.70 2.84 2.99 3.29 3.28 3.38 3.21 3.21 3.33 3.41 3.53 3.36 3.15 3.23 3.34 3.33 3.23 2.86 2.74 2.61 2.44 2.22 2.34 2.11 1.95 1.85 1.71 1.58 1.48 1.34 1.32
2.83 3.00 2.98 2.90 2.90 2.87 2.63 2.80 3.03 2.99 3.03 2.78 2.68 2.64 2.65 2.91 3.00 3.09 2.80 3.01 3.37 3.44 3.50 3.42 3.27 3.29 3.28 3.45 3.18 3.01 2.88 2.88 2.76 2.44 2.33 2.05 1.97 1.82 1.76 1.78 1.71 1.57 1.45
3.29 3.21 3.11 3.15 3.10 2.79 2.93 3.02 2.95 2.99 3.19 3.14 2.96 2.89 2.77 2.71 2.70 2.74 2.74 2.84 3.02 3.04 3.11 3.26 3.17 3.14 3.17 3.33 3.52 3.39 3.23 3.10 2.85 2.53 2.58 2.24 2.08 2.00 1.82 1.70 1.85 1.77 1.59
3.36 3.26 3.23 3.27 3.16 3.17 3.13 2.90 2.76 2.76 2.88 2.96 3.00 2.96 2.60 2.44 2.71 2.59 2.73 2.75 2.57 2.52 2.55 2.73 2.74 2.74 3.22 3.56 3.92 3.55 3.39 3.22 2.93 2.77 2.83 2.44 2.23 2.13 1.91 1.85 2.01 1.75 1.55
3.37 3.34 3.26 3.16 3.09 2.97 3.04 2.79 2.76 2.61 2.57 2.56 2.70 2.81 2.73 2.59 2.64 2.79 2.68 2.40 2.15 2.13 2.21 2.12 2.11 2.37 2.85 3.51 3.87 3.83 3.87 3.61 3.23 2.82 2.72 2.47 2.23 2.07 1.87 1.89 2.12 1.97 1.75
3.27 3.12 3.00 2.99 2.96 3.02 3.29 2.96 2.81 2.55 2.52 2.38 2.43 2.47 2.47 2.31 2.50 2.66 2.53 2.28 2.07 1.95 2.01 2.01 1.97 2.20 2.49 2.86 3.32 3.59 3.53 3.41 2.98 2.55 2.49 2.40 2.23 2.24 2.15 2.03 2.01 2.14 1.94
3.52 3.49 3.35 3.28 3.20 3.16 3.39 3.09 2.90 2.59 2.55 2.49 2.54 2.55 2.59 2.32 2.27 2.23 2.10 2.10 1.92 1.82 1.98 1.95 1.89 1.91 2.03 2.37 2.87 2.97 3.06 3.23 2.94 2.59 2.30 2.36 2.26 2.46 2.39 2.11 1.99 1.96 1.87